[TLELIST] Archives

 

[TLELIST] Current TLEs

June 5th 2023 PDT

HST 1 20580U 90037B 23155.94297497 .00003968 00000-0 20762-3 0 9997 2 20580 28.4708 349.4712 0002110 245.9110 259.0432 15.13180771619603 ISS (ZARYA) 1 25544U 98067A 23156.38425926 .00012599 00000-0 22444-3 0 9991 2 25544 51.6424 27.0478 0005522 55.0745 281.4638 15.50489937399950 CXO 1 25867U 99040B 23157.38137168 .00000610 00000-0 00000+0 0 9991 2 25867 37.6776 198.2438 9048520 261.2194 0.1201 0.37813818 24294 ...Continue Reading

[TLELIST] Current TLEs

June 4th 2023 PDT

HST 1 20580U 90037B 23154.88373017 .00004199 00000-0 22034-3 0 9993 2 20580 28.4708 356.5176 0002141 232.6843 250.6271 15.13173246619445 ISS (ZARYA) 1 25544U 98067A 23155.18974314 .00014444 00000-0 25633-3 0 9992 2 25544 51.6427 32.9708 0005486 49.5556 95.1385 15.50461945399779 CXO 1 25867U 99040B 23157.38137168 .00000610 00000-0 00000+0 0 9991 2 25867 37.6776 198.2438 9048520 261.2194 0.1201 0.37813818 24294 ...Continue Reading

[TLELIST] Current TLEs

June 3rd 2023 PDT

HST 1 20580U 90037B 23153.87569684 .00004390 00000-0 23088-3 0 9991 2 20580 28.4707 3.2237 0002162 220.6290 160.5934 15.13165778619293 ISS (ZARYA) 1 25544U 98067A 23154.15920225 .00019228 00000-0 33870-3 0 9997 2 25544 51.6430 38.0807 0005578 44.0089 104.8100 15.50437369399612 CXO 1 25867U 99040B 23154.73769891 .00000616 00000-0 00000+0 0 9997 2 25867 37.7035 198.5805 9048339 260.9521 0.1123 0.37813990 24285 ...Continue Reading

[TLELIST] Current TLEs

June 2nd 2023 PDT

HST 1 20580U 90037B 23152.90585373 .00004258 00000-0 22367-3 0 9999 2 20580 28.4707 9.6754 0002230 209.0227 278.5893 15.13157782619407 ISS (ZARYA) 1 25544U 98067A 23153.42015046 .00017048 00000-0 30163-3 0 9992 2 25544 51.6420 41.7426 0005273 43.7119 297.3474 15.50405251399494 CXO 1 25867U 99040B 23154.73769891 .00000616 00000-0 00000+0 0 9997 2 25867 37.7035 198.5805 9048339 260.9521 0.1123 0.37813990 24285 ...Continue Reading

[TLELIST] Current TLEs

June 1st 2023 PDT

HST 1 20580U 90037B 23151.96437295 .00003631 00000-0 18924-3 0 9991 2 20580 28.4706 15.9385 0002291 197.3921 191.4430 15.13149238619006 ISS (ZARYA) 1 25544U 98067A 23152.28957880 .00028823 00000-0 50433-3 0 9991 2 25544 51.6411 47.3482 0005092 38.3010 108.4298 15.50372472399323 CXO 1 25867U 99040B 23154.73769891 .00000616 00000-0 00000+0 0 9997 2 25867 37.7035 198.5805 9048339 260.9521 0.1123 0.37813990 24285 ...Continue Reading

[TLELIST] Current TLEs

June 1st 2023 PDT

HST 1 20580U 90037B 23151.96437295 .00003631 00000-0 18924-3 0 9991 2 20580 28.4706 15.9385 0002291 197.3921 191.4430 15.13149238619006 ISS (ZARYA) 1 25544U 98067A 23152.28957880 .00028823 00000-0 50433-3 0 9991 2 25544 51.6411 47.3482 0005092 38.3010 108.4298 15.50372472399323 CXO 1 25867U 99040B 23154.73769891 .00000616 00000-0 00000+0 0 9997 2 25867 37.7035 198.5805 9048339 260.9521 0.1123 0.37813990 24285 ...Continue Reading

[TLELIST] Current TLEs

May 31st 2023 PDT

HST 1 20580U 90037B 23150.92389667 .00003616 00000-0 18846-3 0 9991 2 20580 28.4707 22.8601 0002320 186.4642 283.2872 15.13141785618847 ISS (ZARYA) 1 25544U 98067A 23151.31424947 .00039369 00000-0 68534-3 0 9995 2 25544 51.6400 52.1815 0006281 32.0612 67.5335 15.50354003399175 CXO 1 25867U 99040B 23152.09328780 .00000642 00000-0 00000+0 0 9991 2 25867 37.7296 198.8693 9049731 260.7279 0.0177 0.37815840 24270 ...Continue Reading

[TLELIST] Current TLEs

May 30th 2023 PDT

HST 1 20580U 90037B 23150.06744576 .00003755 00000-0 19615-3 0 9999 2 20580 28.4707 28.5575 0002360 177.0674 298.0620 15.13136081618977 ISS (ZARYA) 1 25544U 98067A 23150.22508225 .00013293 00000-0 23809-3 0 9990 2 25544 51.6426 57.5769 0005342 36.4941 100.3182 15.50280847399002 CXO 1 25867U 99040B 23152.09328780 .00000642 00000-0 00000+0 0 9991 2 25867 37.7296 198.8693 9049731 260.7279 0.0177 0.37815840 24270 ...Continue Reading

[TLELIST] Current TLEs

May 29th 2023 PDT

HST 1 20580U 90037B 23148.87634757 .00004241 00000-0 22291-3 0 9999 2 20580 28.4706 36.4809 0002445 164.4247 289.5647 15.13128778618534 ISS (ZARYA) 1 25544U 98067A 23149.25829992 .00013900 00000-0 24880-3 0 9993 2 25544 51.6433 62.3698 0005487 31.7591 105.9049 15.50253786398851 CXO 1 25867U 99040B 23149.44800758 .00000665 00000-0 00000+0 0 9991 2 25867 37.7551 199.2137 9052473 260.4525 359.8573 0.37816477 24261 ...Continue Reading

[TLELIST] Current TLEs

May 29th 2023 PDT

HST 1 20580U 90037B 23148.87634757 .00004241 00000-0 22291-3 0 9999 2 20580 28.4706 36.4809 0002445 164.4247 289.5647 15.13128778618534 ISS (ZARYA) 1 25544U 98067A 23149.25829992 .00013900 00000-0 24880-3 0 9993 2 25544 51.6433 62.3698 0005487 31.7591 105.9049 15.50253786398851 CXO 1 25867U 99040B 23149.44800758 .00000665 00000-0 00000+0 0 9991 2 25867 37.7551 199.2137 9052473 260.4525 359.8573 0.37816477 24261 ...Continue Reading
  • This mailing list is a public mailing list - anyone may join or leave, at any time.
  • This mailing list is announce-only.

International Space Station (ISS) / Hubble Space Telescope (HST) / Chandra X-Ray Observatory Orbital Data via EMAIL

Privacy Policy:

Private list